Simultaneous Nadir Overpasses (SNOs) Predictions

Prediction of SNOs between GOES-17 and TERRA Satellite Orbit:

Table of predicted SNOs for the next 14.0 days since TLE Epoch: 9/7/2019
Index Date Time (GOES-17) GOES-17 Lat,Lon TERRA Lat,Lon Distance(km) Time Diff (sec)
1 09/08/2019 07:42:50 -0.02,-137.20 -0.17,-137.82 70.17 80
2 09/10/2019 07:27:58 -0.01,-137.20 0.46,-134.86 265.39 80
3 09/10/2019 19:49:14 0.01,-137.19 0.59,-140.03 321.83 80
4 09/12/2019 19:39:42 0.00,-137.18 -0.05,-137.07 13.52 80
5 09/14/2019 19:27:29 -0.00,-137.17 -0.62,-134.10 348.00 80
6 09/15/2019 07:48:53 0.00,-137.17 -0.48,-139.29 242.11 80
7 09/17/2019 07:34:01 0.00,-137.15 0.16,-136.34 92.06 80
8 09/17/2019 19:55:16 -0.00,-137.14 0.95,-141.49 495.72 80
9 09/19/2019 07:21:49 0.00,-137.12 0.80,-133.38 425.42 80
10 09/19/2019 19:43:04 -0.00,-137.11 0.31,-138.53 162.57 80




NCC Satellite Simultaneous Nadir Overpasses (SNOs) Prediction Service
